ASIASAT 5

Last updated on Sat Apr 11 2026 00:02:51 GMT+0000 (Coordinated Universal Time)

1 35696U 09042A 26100.83479446 -.00000305 00000+0 00000+0 0 9995 2 35696 0.0255 119.9107 0001694 259.5212 220.6157 1.00268181 61037
UTC large
Height (km)
Speed (km/s)
/
Latitude / Longitude
Inclination (degrees)
Orbital Period (minutes)
Azimuth
Elevation
Range (km)
Doppler Factor

Next 0 passes for location: London (51.5072 / 0.1276)

Sorry there are no passes over London.
ASIASAT 5